Location: Amsterdam
(30.7274°N, 84.4357°W)
Time: 23:57:46
(UTC+00:00)

Tiros 1 despin weight - Pass Details

Date: 25 February 2026
Orbit: 556 x 593 km, 48.2° (Epoch: 9 March)

Event Time Altitude Azimuth Distance (km) Brightness Sun altitude
Rises 23:52:37 0° 314° (NW) 2,730 ? -4.9°
Reaches altitude 10° 23:54:54 10° 317° (NW) 1,833 ? -5.4°
Maximum altitude 23:59:02 62° 39° (NE) 623 ? -6.3°
Drops below altitude 10° 00:03:11 10° 121° (ESE) 1,832 ? -7.1°
Enters shadow 00:04:44 - 123° (ESE) 2,447 ? -7.5°
Sets 00:05:27 0° 124° (SE) 2,728 - -7.6°
